Location: Centrum přírodních věd - Hvězdárna Jičín
(50.4344°N, 15.3406°E)
Time: 08:20:44
(UTC+02:00)

ISS - Visible Passes

Search period start: 06 July 2022 00:00
Search period end: 16 July 2022 00:00
Orbit: 414 x 420 km, 51.6° (Epoch: 06 July)

Date Brightness Start Highest point End Pass type
(mag) Time Alt. Az. Time Alt. Az. Time Alt. Az.
06 Jul -1.5 01:01:42 14° ESE 01:01:42 14° ESE 01:02:36 10° E visible
06 Jul -3.8 02:34:35 23° WSW 02:36:32 70° SSE 02:39:53 10° ENE visible
06 Jul -3.4 04:10:00 10° W 04:13:21 69° N 04:16:43 10° E visible
07 Jul -3.6 01:47:44 44° SSW 01:48:20 52° SSE 01:51:37 10° ENE visible
07 Jul -3.5 03:21:43 10° W 03:25:04 72° N 03:28:27 10° E visible
08 Jul -2.9 01:00:47 33° ESE 01:00:47 33° ESE 01:03:18 10° E visible
08 Jul -3.7 02:33:40 12° W 02:36:47 80° N 02:40:10 10° ENE visible
08 Jul -3.6 04:10:18 10° WNW 04:13:41 78° N 04:17:04 10° E visible
09 Jul -1.8 00:13:43 17° ESE 00:13:43 17° ESE 00:14:53 10° E visible
09 Jul -3.9 01:46:36 24° WSW 01:48:31 86° SSE 01:51:54 10° ENE visible
09 Jul -3.5 03:22:01 10° W 03:25:23 71° N 03:28:45 10° E visible
10 Jul -3.9 00:59:18 41° SW 01:00:16 68° SSE 01:03:36 10° ENE visible
10 Jul -3.5 02:33:43 10° W 02:37:04 69° N 02:40:26 10° E visible
10 Jul -3.8 04:10:32 10° WNW 04:13:54 74° SSW 04:17:15 10° ESE visible
11 Jul -3.7 00:11:28 44° S 00:12:01 50° SSE 00:15:18 10° ENE visible
11 Jul -3.6 01:45:24 10° W 01:48:45 72° N 01:52:06 10° E visible
11 Jul -3.8 03:22:14 10° WNW 03:25:37 89° NNE 03:28:59 10° ESE visible
11 Jul -3.2 23:20:43 10° SW 23:23:49 35° SSE 23:26:55 10° E visible
12 Jul -3.7 00:57:03 10° W 01:00:25 81° NNW 01:03:47 10° ENE visible
12 Jul -3.6 02:33:56 10° WNW 02:37:18 77° N 02:40:41 10° E visible
12 Jul -3.3 04:10:46 10° W 04:13:57 41° SSW 04:17:08 10° SE visible
12 Jul -2.7 22:32:51 10° SSW 22:35:38 25° SE 22:38:26 10° E visible
13 Jul -3.9 00:08:45 10° WSW 00:12:06 84° SSE 00:15:28 10° ENE visible
13 Jul -3.5 01:45:36 10° W 01:48:57 70° N 01:52:19 10° E visible
13 Jul -3.7 03:22:25 10° WNW 03:25:43 57° SSW 03:29:01 10° SE visible
13 Jul -2.2 21:45:16 10° S 21:47:31 17° SE 21:49:46 10° E visible
13 Jul -3.9 23:20:29 10° WSW 23:23:48 66° SSE 23:27:08 10° ENE visible
14 Jul -3.5 00:57:15 10° W 01:00:35 69° N 01:03:57 10° E visible
14 Jul -3.9 02:34:04 10° WNW 02:37:26 76° SSW 02:40:48 10° ESE visible
14 Jul -2.4 04:11:13 10° W 04:13:49 21° SW 04:16:25 10° SSE visible
14 Jul -3.6 22:32:18 10° SW 22:35:32 48° SSE 22:38:46 10° E visible
15 Jul -3.6 00:08:53 10° W 00:12:13 73° N 00:15:36 10° E visible
15 Jul -3.8 01:45:44 10° WNW 01:49:06 87° N 01:52:28 10° ESE visible
15 Jul -3.0 03:22:39 10° W 03:25:38 30° SSW 03:28:37 10° SSE visible
15 Jul -3.1 21:44:13 10° SW 21:47:16 34° SSE 21:50:21 10° E visible
15 Jul -3.7 23:20:30 10° W 23:23:51 83° NNW 23:27:14 10° ENE visible
